This is the latest recevied weather packets stored in our database for station/object F4GQK-13. If no packets are shown the sender has not sent any weather packets the latest 10 day(s).
| Time | Temp. | Humidity | Pressure | Rain* | Wind** | Luminosity | Snow |
|---|---|---|---|---|---|---|---|
| 1777827604 | 18.33° C | 83% | 1011.9 hPa | 0 mm | - | 139 W/m² | - |
| 1777827305 | 18.33° C | 83% | 1012 hPa | 0 mm | - | 331 W/m² | - |
| 1777827004 | 18.33° C | 84% | 1011.9 hPa | 0 mm | - | 226 W/m² | - |
| 1777826704 | 18.33° C | 85% | 1011.8 hPa | 0 mm | - | 168 W/m² | - |
| 1777826405 | 18.33° C | 85% | 1011.9 hPa | 0 mm | - | 326 W/m² | - |
| 1777826104 | 18.33° C | 85% | 1011.6 hPa | 0 mm | - | 211 W/m² | - |
| 1777825805 | 18.33° C | 86% | 1011.8 hPa | 0 mm | - | 266 W/m² | - |
| 1777825505 | 17.78° C | 87% | 1011.8 hPa | 0 mm | - | 276 W/m² | - |
| 1777824905 | 17.78° C | 86% | 1011.7 hPa | 0 mm | - | 148 W/m² | - |
| 1777824605 | 17.78° C | 85% | 1012 hPa | 0 mm | - | 151 W/m² | - |
| 1777824305 | 17.78° C | 86% | 1012.1 hPa | 0 mm | - | 157 W/m² | - |
| 1777824005 | 18.33° C | 85% | 1012.1 hPa | 0 mm | - | 152 W/m² | - |
| 1777823704 | 18.33° C | 85% | 1012.2 hPa | 0 mm | - | 141 W/m² | - |
| 1777823404 | 18.33° C | 86% | 1012.1 hPa | 0 mm | - | 158 W/m² | - |
| 1777823105 | 18.33° C | 86% | 1012 hPa | 0 mm | - | 256 W/m² | - |
| 1777822805 | 18.33° C | 88% | 1012.1 hPa | 0.51 mm | - | 540 W/m² | - |
| 1777822505 | 17.78° C | 90% | 1012.1 hPa | 1.02 mm | - | 602 W/m² | - |
| 1777822205 | 17.22° C | 93% | 1012.2 hPa | 1.27 mm | - | 710 W/m² | - |
| 1777821905 | 16.67° C | 93% | 1012 hPa | 2.03 mm | - | 339 W/m² | - |
| 1777821605 | 16.67° C | 93% | 1012.2 hPa | 2.29 mm | - | 196 W/m² | - |
| 1777821304 | 16.67° C | 93% | 1011.8 hPa | 2.29 mm | - | 120 W/m² | - |
| 1777821005 | 16.67° C | 93% | 1011.9 hPa | 2.29 mm | - | 124 W/m² | - |
| 1777820704 | 16.67° C | 93% | 1012.2 hPa | 2.29 mm | - | 74 W/m² | - |
| 1777820405 | 16.67° C | 93% | 1012.3 hPa | 2.29 mm | - | 120 W/m² | - |
| 1777820105 | 16.11° C | 93% | 1012.1 hPa | 2.29 mm | - | 103 W/m² | - |
* Rain latest hour (hover to see other rain measurements)
** Current wind speed in m/s (hover to see current wind gust speed)